Location: Nickerson Gardens
(33.9320°N, 118.2484°W)
Time: 05:54:27
(UTC+00:00)

N. Korean satellite - Pass Details

Date: 22 January 2021
Orbit: 451 x 502 km, 97.2° (Epoch: 05 March)

Event Time Altitude Azimuth Distance (km) Brightness Sun altitude
Rises 12:24:02 0° 33° (NNE) 2,497 10.5 -31.3°
Reaches altitude 10° 12:26:47 10° 57° (ENE) 1,606 9.8 -30.7°
Maximum altitude 12:28:52 15° 94° (E) 1,313 9.5 -30.3°
Drops below altitude 10° 12:30:55 10° 132° (SE) 1,587 9.8 -29.9°
Sets 12:33:35 0° 156° (SSE) 2,448 10.5 -29.3°
